Regional Weather Roundup
Issued by NWS

Home | Current Version | Previous Version | Graphics & Text | Print | Product List | Glossary On
Versions: 1 2 3 4 5 6 7 8 9 10 11 12 13 14 15 16 17 18 19 20 21 22 23 24 25 26 27 28 29 30 31 32 33 34 35 36 37 38 39 40 41 42 43 44 45 46 47 48 49 50
000
ASUS43 KMKX 230020
RWRWI

WISCONSIN REGIONAL WEATHER ROUNDUP
NATIONAL WEATHER SERVICE MILWAUKEE/SULLIVAN WI
600 PM CST MON JAN 22 2018

NOTE: "FAIR" INDICATES FEW OR NO CLOUDS BELOW 12,000 FEET WITH NO
SIGNIFICANT WEATHER AND/OR OBSTRUCTIONS TO VISIBILITY.

WIZ001-002-006>008-014>016-023>028-230100-
NORTHWEST WISCONSIN

CITY           SKY/WX    TMP DP  RH WIND       PRES   REMARKS
SUPERIOR ARPT  CLOUDY    27  22  79 N10G16    29.90R WCI  18
6HR MIN TEMP:  25; 6HR MAX TEMP:  28;

ASHLAND        LGT SNOW  24  23  96 NE18      29.88R FOG     WCI  10
6HR MIN TEMP:  24; 6HR MAX TEMP:  28; 6HR PCP:  0.06;

HAYWARD        LGT SNOW  25  21  85 N23G31    29.78R FOG     WCI  10
6HR MIN TEMP:  25; 6HR MAX TEMP:  29; 6HR PCP:  0.02;

SIREN          LGT SNOW  25  23  92 NE15G25   29.78F VSB 1   WCI  13
6HR MIN TEMP:  25; 6HR MAX TEMP:  31;

CUMBERLAND     CLOUDY    27  23  86 N22G31    29.69F WCI  12
RICE LAKE        N/A     27  26  96 N28G35    29.69S WCI  12
6HR MIN TEMP:  27; 6HR MAX TEMP:  30; 6HR PCP:  0.05;

CHETEK         LGT SNOW  28  26  94 N14       29.67S WCI  17
6HR MIN TEMP:  28; 6HR MAX TEMP:  31; 6HR PCP:  0.37;

LADYSMITH      CLOUDY    28  27  93 N18G25    29.67S WCI  16
6HR MIN TEMP:  28; 6HR MAX TEMP:  31; 6HR PCP:  0.02;

EAU CLAIRE     LGT SNOW  30  28  92 NE15G24   29.63R FOG     WCI  19
6HR MIN TEMP:  30; 6HR MAX TEMP:  31; 6HR PCP:  0.27;

MENOMONIE      FLURRIES  31  27  87 N16G23    29.66R WCI  20
6HR MIN TEMP:  31; 6HR MAX TEMP:  32; 6HR PCP:  0.14;

NEW RICHMOND     N/A     26  25  95 N22G32    29.70R WCI  12
6HR MIN TEMP:  26; 6HR MAX TEMP:  30;

OSCEOLA        CLOUDY    26  26 100 N13G23    29.76S WCI  15
6HR MIN TEMP:  26; 6HR MAX TEMP:  31;

$$

WIZ003>005-009-010-017-018-230100-
NORTH CENTRAL WISCONSIN

CITY           SKY/WX    TMP DP  RH WIND       PRES   REMARKS
MANITOWISH WTR LGT SNOW  24  24 100 NE5       29.73R VSB 3/4 WCI  18
6HR MIN TEMP:  24; 6HR MAX TEMP:  28; 6HR PCP:  0.04;

ARBOR VITAE    LGT SNOW  27  25  93 NE5       29.71R VSB 1   WCI  21
6HR MIN TEMP:  27; 6HR MAX TEMP:  32; 6HR PCP:  0.10;

WOODRUFF       LGT SNOW  27  25  93 NE5       29.71R VSB 1   WCI  21
6HR MIN TEMP:  27; 6HR MAX TEMP:  32; 6HR PCP:  0.10;

RHINELANDER    SNOW      28  27  96 NE13G22   29.65F VSB 1/2 WCI  17
6HR MIN TEMP:  28; 6HR MAX TEMP:  31; 6HR PCP:  0.22;

EAGLE RIVER    LGT SNOW  26  25  96 NE8       29.70R WCI  17
6HR MIN TEMP:  26; 6HR MAX TEMP:  30;

LAND O LAKES   LGT SNOW  25  22  91 NE9G16    29.73R VSB 3/4 WCI  15
6HR MIN TEMP:  25; 6HR MAX TEMP:  30;

PHILLIPS       LGT SNOW  25  25  99 NE17G23   29.67F WCI  12
6HR MIN TEMP:  26; 6HR MAX TEMP:  29; 6HR PCP:  0.06;

TOMAHAWK       LGT SNOW  28  26  94 N9G16     29.65F VSB 3/4 WCI  19
6HR MIN TEMP:  28; 6HR MAX TEMP:  31;

MEDFORD        FLURRIES  29  27  90 NE20      29.56F WCI  16
6HR MIN TEMP:  29; 6HR MAX TEMP:  32; 6HR PCP:  0.09;

MERRILL        LGT SNOW  30  28  93 NE14G23   29.60F WCI  20
6HR MIN TEMP:  31; 6HR MAX TEMP:  32; 6HR PCP:  0.10;

$$

WIZ029-030-035-036-043>047-230100-
CENTRAL WISCONSIN

CITY           SKY/WX    TMP DP  RH WIND       PRES   REMARKS
WAUSAU         LGT SNOW  30  29  96 N6G18     29.55F VSB 1   WCI  24
6HR MIN TEMP:  30; 6HR MAX TEMP:  33; 6HR PCP:  0.18;

MOSINEE        LGT SNOW  30  30 100 NE15      29.59R WCI  19
MARSHFIELD     LGT SNOW  32  30  92 NE16G23   29.56R FOG     WCI  21
6HR MIN TEMP:  32; 6HR MAX TEMP:  33; 6HR PCP:  0.21;

STEVENS POINT  MIX PCPN  29  29 100 NE12      29.57S WCI  20
6HR MIN TEMP:  29; 6HR MAX TEMP:  32; 6HR PCP:  0.09;

WAUPACA        CLOUDY    32  29  88 N13G22    29.57R WCI  23
6HR MIN TEMP:  32; 6HR MAX TEMP:  37; 6HR PCP:  0.01;

WAUTOMA        CLOUDY    31  29  92 NE15G24   29.54R WCI  20
6HR MIN TEMP:  31; 6HR MAX TEMP:  35;

WISC RAPIDS    NOT AVBL
CAMP DOUGLAS   CLOUDY    32  32 100 NE9       29.55R WCI  24
                                      6HR PCP:  0.24;

$$

WIZ011>013-019>022-031-037>040-048>050-230100-
NORTHEAST WISCONSIN

CITY           SKY/WX    TMP DP  RH WIND       PRES   REMARKS
ANTIGO         LGT SNOW  28  28  98 NE21      29.58F VSB 1   WCI  15
6HR MIN TEMP:  28; 6HR MAX TEMP:  32; 6HR PCP:  0.05;

SHAWANO        CLOUDY    32  29  90 NE12G18   29.59S WCI  23
OCONTO         CLOUDY    30  28  93 NE9       29.60R WCI  21
6HR MIN TEMP:  30; 6HR MAX TEMP:  32; 6HR PCP:  0.05;

STURGEON BAY   CLOUDY   N/A N/A N/A NE16      29.57F
6HR MIN TEMP:  32; 6HR MAX TEMP:  34; 6HR PCP:  0.11;

GREEN BAY      CLOUDY    32  30  92 N21G32    29.56S WCI  20
6HR MIN TEMP:  32; 6HR MAX TEMP:  34; 6HR PCP:  0.10;

MANITOWOC      CLOUDY    35  35 100 N12G20    29.51F WCI  27
APPLETON       CLOUDY    30  30 100 NE16G29   29.52F WCI  19
CLINTONVILLE   CLOUDY    32  28  86 E14G21    29.57F WCI  22
OSHKOSH        CLOUDY    33  31  92 N15G24    29.53R WCI  23
6HR MIN TEMP:  33; 6HR MAX TEMP:  35; 6HR PCP:  0.05;

$$

WIZ032>034-041-042-053>061-230100-
SOUTHWEST WISCONSIN

CITY           SKY/WX    TMP DP  RH WIND       PRES   REMARKS
LA CROSSE      LGT RAIN  35  35 100 N9        29.56S FOG     WCI  28
6HR MIN TEMP:  33; 6HR MAX TEMP:  37; 6HR PCP:  0.28;

SPARTA         CLOUDY    32  31  96 NE8       29.56S WCI  25
6HR MIN TEMP:  32; 6HR MAX TEMP:  34; 6HR PCP:  0.18;

VIROQUA        CLOUDY    32  32 100 NE13G18   29.51R WCI  23
6HR MIN TEMP:  32; 6HR MAX TEMP:  34; 6HR PCP:  0.23;

BOSCOBEL       CLOUDY    37  50 100 VRB6      29.51R WCI  32
6HR MIN TEMP:  37; 6HR MAX TEMP:  38; 6HR PCP:  0.16;

PRAIRIE DU CHI CLOUDY    37  33  88 CALM      29.51R
6HR MIN TEMP:  36; 6HR MAX TEMP:  38; 6HR PCP:  0.10;

PLATTEVILLE    CLOUDY    37  37 100 N9        29.47R WCI  30
6HR MIN TEMP:  37; 6HR MAX TEMP:  40; 6HR PCP:  0.01;

$$

WIZ056-057-062-063-064-067-068-230100-
SOUTH CENTRAL WISCONSIN

CITY           SKY/WX    TMP DP  RH WIND       PRES   REMARKS
REEDSBURG      CLOUDY    32  32 100 NE10G18   29.51F WCI  24
6HR MIN TEMP:  32; 6HR MAX TEMP:  35; 6HR PCP:  0.19;

BARABOO/DELLS  FLURRIES  32  32  99 NE15      29.51S WCI  22
6HR MIN TEMP:  32; 6HR MAX TEMP:  35; 6HR PCP:  0.08;

LONE ROCK      CLOUDY    36  34  92 N13       29.52R WCI  27
6HR MIN TEMP:  36; 6HR MAX TEMP:  38; 6HR PCP:  0.22;

MINERAL POINT  CLOUDY    36  36 100 N12       29.47R FOG     WCI  27
MADISON        RAIN      35  34  96 N14       29.50R FOG     WCI  26
6HR MIN TEMP:  35; 6HR MAX TEMP:  38; 6HR PCP:  0.18;

MIDDLETON      CLOUDY    36  36 100 N9        29.50R WCI  29
6HR MIN TEMP:  36; 6HR MAX TEMP:  39; 6HR PCP:  0.07;

WATERTOWN      RAIN      35  35 100 N14       29.46S WCI  26
6HR MIN TEMP:  35; 6HR MAX TEMP:  38; 6HR PCP:  0.04;

MONROE         CLOUDY    36  36 100 N12G17    29.45R WCI  27
JANESVILLE     CLOUDY    39  39 100 N8        29.43F WCI  34
$$

WIZ051-052-058>065-066-070>072-230100-
SOUTHEAST WISCONSIN

CITY           SKY/WX    TMP DP  RH WIND       PRES   REMARKS
MILWAUKEE      FOG       38  37  97 NE12      29.46S VSB 1/2 WCI  30
6HR MIN TEMP:  38; 6HR MAX TEMP:  41; 6HR PCP:  0.02;

WAUKESHA       FOG       36  36 100 NE8       29.47R VSB 1/2 WCI  29
MILWAUKEE/TIMM CLOUDY    37  36  93 N5        29.48R FOG     WCI  34
RACINE         FOG       36  36 100 N6        29.47F VSB 1/4 WCI  31
6HR MIN TEMP:  36; 6HR MAX TEMP:  45; 6HR PCP: TRACE;

BURLINGTON     FOG       40  39  97 NE6       29.44S VSB 1/2
6HR MIN TEMP:  39; 6HR MAX TEMP:  50;

KENOSHA        MOCLDY    42  40  92 NE10      29.44S FOG
6HR MIN TEMP:  42; 6HR MAX TEMP:  53; 6HR PCP:  0.01;

FOND DU LAC    CLOUDY    34  31  88 N16       29.52R WCI  24
6HR MIN TEMP:  34; 6HR MAX TEMP:  38; 6HR PCP:  0.08;

SHEBOYGAN      CLOUDY    35  35 100 N10       29.49S FOG     WCI  27
6HR MIN TEMP:  36; 6HR MAX TEMP:  37; 6HR PCP:  0.09;

WEST BEND      CLOUDY    36  36 100 N7        29.48S FOG     WCI  30
JUNEAU         DRIZZLE   33  32  98 N13       29.49S WCI  24
6HR MIN TEMP:  33; 6HR MAX TEMP:  37; 6HR PCP:  0.03;

$$

LSZ147-162-230100-
LAKE SUPERIOR

STATION/POSITION TIME  TEMP    WIND        PRES    WAVE
                       AIR SEA DIR/SP/G            HT/PER
                 (UTC) (F)     (DEG/KT/KT) (MB)    (FT/S)
DEVILS ISLAND    0000   26      40/ 25/ 27 1012.8R
SAXON HARBOR     2344   28      40/ 24     1010.2R
$$

LMZ867-665-643>646-230100-
LAKE MICHIGAN

STATION/POSITION TIME  TEMP    WIND        PRES    WAVE
                       AIR SEA DIR/SP/G            HT/PER
                 (UTC) (F)     (DEG/KT/KT) (MB)    (FT/S)
NORTHPORT PIER   2340   31      50/  8/ 14 1003.4R
KEWAUNEE LAKESHO 2354   34      20/ 12/ 19  999.6R
SHEBOYGAN LAKESH 0000   36     350/ 16/ 17  998.9F
PORT WASHIN



USA.gov is the U.S. government's official web portal to all federal, state and local government web resources and services.